User: anonymous   Login
Location: Unspecified
(0.0000°N, 0.0000°E)
Time: 11:03:18
(UTC+00:00)
Language:

Picosat 4 - Orbit

View from above orbital plane
View from above orbital plane
View from above satellite
View from above satellite

Ground track
Ground track

The orbit data is extracted from the following two-line orbital elements,

1 26092U 00004K   17351.45792590  .00000144  00000-0  60204-4 0  9996
2 26092 100.1820  75.6532 0033772  16.7315 343.4976 14.43352771938155
Epoch (UTC): 17 December 2017 10:59:24
Eccentricity: 0.0033772
inclination: 100.1820°
perigee height: 723 km
apogee height: 771 km
right ascension of ascending node: 75.6532°
argument of perigee: 16.7315°
revolutions per day: 14.43352771
mean anomaly at epoch: 343.4976°
orbit number at epoch: 93815

The dashed part of the orbit path shows where the satellite is in the earth's shadow,  

DLR